Погода в Кировском

Россия / Астраханская область     45°50′47″N   48°07′34″E
темп.,
°C
ветер,
м/с
пор.,
м/с
влажн.,
%
обл.,
%
осадки,
мм/ч
давл.,
гПа
погр.,
м
25 января, вт
вт2501:00+1в61183100 0.0 1021330
04:00+1в5984100 0.0 1021348
07:00+1всв2390100 0.1 1021176
10:00+1всв2390100 0.1 1022214
13:00+1всв2397100 0.3 1022143
16:00+1ссз1199100 0.5 102280
19:00+1сз3698100 0.2 1023253
22:00+1ссз3698100 1.8 1023209
26 января, ср
ср2601:000зсз4686100 0.1 1023558
04:000зсз4688100 0.2 1023553
07:00−2сз2396100 0.0 102392
10:00−1с1286100 0.0 1023223
13:00+1ссв227597 0.0 1023474
16:00+1в2377100 0.0 1022512
19:00−1в3593100 0.0 1022186
22:00−2в3693100 0.0 1022305
27 января, чт
чт2701:00−1всв4681100 0.0 1021693
04:00−1св4687100 0.1 1020333
07:00−1св4692100 0.0 1019331
10:00−1ссв4689100 0.1 1019311
13:00+1ссв4588100 0.3 1018477
16:00+1с4691100 0.4 1017524
19:000с4686100 0.1 1018593
22:000ссз4689100 0.1 1018477
28 января, пт
пт2801:00−1сз5789100 0.0 1017507
04:00−1сз5990100 0.1 1018591
07:00−3сз410935 0.0 1018383
10:00−1сз598443 0.0 1020498
13:00+1зсз696060 0.0 1019829
16:00+1зсз686026 0.0 1020913
19:00−2з24785 0.0 102081
22:00−1з357837 0.0 1021124
29 января, сб
сб2901:00−2з25826 0.0 102187
04:00−1зюз358423 0.0 102192
07:00−1зюз368678 0.0 1021120
10:00+2юз59748 0.0 1022363
13:00+4ююз5762100 0.0 1022348
16:00+4ююз597883 0.0 1022417
19:00+2ююз51185100 0.0 1022280
22:00+2ююз51285100 0.0 1022336